This is the latest recevied weather packets stored in our database for station/object NE8U. If no packets are shown the sender has not sent any weather packets the latest 10 day(s).
| Time | Temp. | Humidity | Pressure | Rain* | Wind** | Luminosity | Snow |
|---|---|---|---|---|---|---|---|
| 1778030537 | 22.22° C | 32% | 1012.3 hPa | 0 mm | - | 29 W/m² | - |
| 1778030234 | 22.22° C | 32% | 1012.2 hPa | 0 mm | - | 32 W/m² | - |
| 1778029930 | 22.22° C | 32% | 1012.1 hPa | 0 mm | - | 39 W/m² | - |
| 1778029629 | 22.22° C | 32% | 1012.1 hPa | 0 mm | - | 49 W/m² | - |
| 1778029326 | 22.78° C | 32% | 1012.1 hPa | 0 mm | - | 53 W/m² | - |
| 1778029023 | 22.78° C | 32% | 1012.1 hPa | 0 mm | - | 69 W/m² | - |
| 1778028720 | 22.78° C | 32% | 1011.6 hPa | 0 mm | - | 106 W/m² | - |
| 1778028416 | 23.33° C | 31% | 1011.7 hPa | 0 mm | - | 121 W/m² | - |
| 1778028113 | 23.33° C | 30% | 1011.9 hPa | 0 mm | - | 64 W/m² | - |
| 1778027809 | 22.78° C | 31% | 1012 hPa | 0 mm | - | 62 W/m² | - |
| 1778027506 | 23.33° C | 30% | 1011.7 hPa | 0 mm | - | 63 W/m² | - |
| 1778027201 | 23.89° C | 29% | 1011.6 hPa | 0 mm | - | 183 W/m² | - |
| 1778026898 | 23.89° C | 29% | 1011.7 hPa | 0 mm | - | 89 W/m² | - |
| 1778026593 | 23.89° C | 29% | 1011.7 hPa | 0 mm | - | 249 W/m² | - |
| 1778026291 | 25° C | 28% | 1011.6 hPa | 0 mm | - | 295 W/m² | - |
| 1778025988 | 24.44° C | 28% | 1011.4 hPa | 0 mm | - | 317 W/m² | - |
| 1778025686 | 24.44° C | 28% | 1011.5 hPa | 0 mm | - | 321 W/m² | - |
| 1778025384 | 24.44° C | 28% | 1011.4 hPa | 0 mm | - | 359 W/m² | - |
| 1778025080 | 23.89° C | 30% | 1011.3 hPa | 0 mm | - | 380 W/m² | - |
| 1778024778 | 25° C | 28% | 1011.3 hPa | 0 mm | - | 374 W/m² | - |
| 1778024474 | 24.44° C | 29% | 1011.5 hPa | 0 mm | - | 376 W/m² | - |
| 1778024172 | 25° C | 28% | 1011.4 hPa | 0 mm | - | 419 W/m² | - |
| 1778023869 | 24.44° C | 29% | 1011.2 hPa | 0 mm | - | 156 W/m² | - |
| 1778023567 | 25° C | 29% | 1011.3 hPa | 0 mm | - | 328 W/m² | - |
| 1778023264 | 23.89° C | 31% | 1011.2 hPa | 0 mm | - | 127 W/m² | - |
* Rain latest hour (hover to see other rain measurements)
** Current wind speed in m/s (hover to see current wind gust speed)